Regional Weather Roundup
Issued by NWS Jackson, KY

Home | Current Version | Previous Version | Text Only | Print | Product List | Glossary On
Versions: 1 2 3 4 5 6 7 8 9 10 11 12 13 14 15 16 17 18 19 20 21 22 23 24 25 26 27 28 29 30 31 32 33 34 35 36 37 38 39 40 41 42 43 44 45 46 47 48 49 50
000
ASUS43 KJKL 271210
RWRJKL

EAST KENTUCKY HOURLY WEATHER ROUNDUP
NATIONAL WEATHER SERVICE JACKSON KY
800 AM EDT FRI MAR 27 2015

NOTE: "FAIR" INDICATES FEW OR NO CLOUDS BELOW 12,000 FEET WITH
NO SIGNIFICANT WEATHER AND/OR OBSTRUCTIONS TO VISIBILITY.

* THESE REPORTS ARE NOT UNDER NWS QUALITY CONTROL AND MAY NOT
  REPORT WEATHER SUCH AS PRECIPITATION AND FOG.

KYZ079-080-083-085-087-088-110-112-115-119-120-271300
...EASTERN KENTUCKY...

CITY           SKY/WX    TMP DP  RH WIND       PRES   REMARKS
JACKSON        CLOUDY    37  34  89 VRB5      29.90R FOG     WCI  33
6HR MIN TEMP:  36; 6HR MAX TEMP:  39;

LONDON         CLOUDY    38  31  76 N9        29.91R WCI  31
6HR MIN TEMP:  38; 6HR MAX TEMP:  41;

SOMERSET*      CLOUDY    32  32 100 CALM      29.96R FOG
MONTICELLO*    PTCLDY    35  32  89 NW8       29.97R WCI  28
6HR MIN TEMP:  35; 6HR MAX TEMP:  42;

MIDDLESBORO*   CLOUDY    40  35  81 N8        29.88S WCI  35
6HR MIN TEMP:  40; 6HR MAX TEMP:  41;

HAZARD APT*    CLOUDY    37  36  93 N3        29.91R
BLACK MTN*       N/A     28  28 100 N9          N/A  WCI  20
PIKEVILLE APT* CLOUDY    36  32  87 N9        29.88R WCI  29
BIG SANDY*     CLOUDY    36  33  88 N6        29.90R WCI  31
6HR MIN TEMP:  36; 6HR MAX TEMP:  40;

MOREHEAD APT*  MOSUNNY   34  25  69 N7        29.96R WCI  28
$$

KYZ035-036-041-042-044-050-067-078-099-271300
...CENTRAL KENTUCKY...

CITY           SKY/WX    TMP DP  RH WIND       PRES   REMARKS
MT STERLING*   MOCLDY    32  30  93 NE6       29.96R WCI  26
FLEMING/MASON* CLOUDY    32  25  74 N9        29.97R WCI  24
DANVILLE*      MOCLDY    34  32  93 N7        29.96R WCI  28
RICHMOND*      CLOUDY    34  32  93 N5        29.94R WCI  30
LEXINGTON      CLOUDY    34  28  79 N8        29.96R WCI  27
6HR MIN TEMP:  34; 6HR MAX TEMP:  37;

FRANKFORT      CLEAR     34  26  72 N6        29.96R WCI  29
6HR MIN TEMP:  33; 6HR MAX TEMP:  39;

$$

KYZ091>093-OHZ055-061-077-WVZ005-015-034-035-042-271300
...SOUTHERN OHIO/WEST VIRGINIA...

CITY           SKY/WX    TMP DP  RH WIND       PRES   REMARKS
COVINGTON      PTCLDY    31  24  75 N8        29.99R WCI  23
COLUMBUS       PTCLDY    30  22  72 NW8       29.94R WCI  22
DAYTON         PTCLDY    30  23  75 NW8       29.98R WCI  22
WILMINGTON     CLEAR     29  22  75 NW6       29.96R WCI  23
HUNTINGTON       N/A     33  24  69 N7        29.93R WCI  27
CHARLESTON     MOCLDY    35  25  66 N8        29.89R WCI  29
PINEVILLE*     CLOUDY    39  36  90 MISG      29.90R
BECKLEY        CLOUDY    33  30  88 N9        29.79F WCI  25
BLUEFIELD      CLOUDY    35  31  85 NW7       29.78S WCI  29
$$

VAZ002-007-008-TNZ017-027-036-066-071-271300
...SOUTHWEST VIRGINIA/EAST TENNESSEE...

CITY           SKY/WX    TMP DP  RH WIND       PRES   REMARKS
WISE*          MIX PCPN  34  34 100 N12       29.82S VSB 1   WCI  25
JONESVILLE*    CLOUDY    39  36  87 NW5       29.87S
ABINGDON*      CLOUDY    40  37  87 N7        29.81R
BRISTOL        CLOUDY    41  36  82 N5        29.82R
KNOXVILLE      LGT RAIN  41  38  89 N12       29.86R FOG
OAK RIDGE      CLOUDY    43  38  82 VRB3      29.88R
CROSSVILLE     CLOUDY    36  29  75 N8        29.88R WCI  30
NASHVILLE      PTCLDY    35  33  92 NW6       30.00R WCI  30
$$

...KEY TO REMARKS...
VSB - VISIBILITY IN MILES
WCI - WIND CHILL INDEX
HX  - HEAT INDEX

$$


USA.gov is the U.S. government's official web portal to all federal, state and local government web resources and services.